www.pogodaiklimat.ru

Погода и климат >> Архив погоды >> Ирак >> Zakho


ПОГОДА в Zakho

  • Прогноз погоды в Zakho
  • Монитор погоды в Zakho
  • Климат города

АРХИВ ПОГОДЫ в Zakho

Время (UTC), дата Ветер
(напр.,м/с)
 
Видим.   Явления Облачность Т
(С)
Тd
(С)
f
(%)
Тe
(С)
Тes
(С)
Комфортность P
(гПа)
Po
(гПа)
Тmin
(С)
Tmax
(С)
R
(мм)
R24
(мм)
S
(см)
09 13.06 Ю 1 10 км 3/3 900 м
[Cu med, cong]
+36.1 +12.0 23 +36 +53 опасность
солнечного
удара
999.5 1000.0
12 13.06 Ю 1 10 км 3/3 660 м
[Cb cap]
+36.1 +9.2 19 +34 +45 очень
жарко
999.0 999.0
15 13.06 Ю 2 10 км 3/1 660 м
[Cb cap Ac cuf]
+35.5 +11.0 23 +35 +36 очень
жарко
999.0 999.0
18 13.06 Ю 1 10 км 3/3 900 м
[Sc]
+32.5 +12.8 30 +33 +33 жарко 1000.4 1000.0 +37.1
06 14.06 Ю 1 5000 м мгла 9/9 900 м
[Sc]
+26.2 +17.1 57 +30 +31 душно 1004.3 1004.0 +23.7 0.0
09 14.06 Ю 1 6000 м мгла 9/9 900 м
[Sc]
+32.2 +15.1 36 +34 +37 душно 1003.5 1004.0
12 14.06 СЗ 2 6000 м мгла 3/1 900 м
[Cu hum Ac und]
+37.0 +12.2 23 +37 +47 очень
жарко
1000.7 1001.0
15 14.06 В 1 7000 м мгла 4/3 660 м
[Cb cap Ac cuf]
+37.2 +13.3 24 +37 +39 очень
жарко
999.4 999.0
18 14.06 Ю 1 9000 м мгла 3/1 840 м
[Sc Ac cuf]
+31.5 +13.0 32 +32 +32 жарко 1000.3 1000.0 +38.2
06 15.06 В 2 9000 м мгла 4/4 900 м
[Sc diur, vesp]
+31.4 +12.3 31 +32 +39 жарко 1001.5 1002.0 +26.2
09 15.06 Ю 4 8000 м пыль 4/1 900 м
[Sc Ac und]
+34.9 +14.0 29 +36 +46 душно 1001.6 1002.0
12 15.06 Ю 2 10 км 3/3 660 м
[Cb cap]
+36.1 +13.7 26 +37 +46 душно 1001.0 1001.0
15 15.06 ЮВ 2 10 км 6/4 660 м
[Cb cap Ac und]
+34.6 +12.8 27 +35 +36 очень
жарко
1001.2 1001.0
06 17.06 Ю 2 10 км 1/1 600 м
[Cu hum]
+31.5 +15.6 38 +34 +45 душно 1006.8 1007.0 +23.1
09 17.06 ЮЗ 2 10 км 3/3 900 м
[Cu med, cong]
+36.1 +13.0 25 +36 +51 опасность
солнечного
удара
1007.0 1007.0
12 17.06 СЗ 2 10 км 3/3 900 м
[Cu med, cong]
+37.9 +9.8 18 +36 +46 очень
жарко
1004.1 1004.0
15 17.06 ЮЗ 2 10 км 3/3 900 м
[Cu med, cong]
+37.1 +10.0 19 +36 +37 очень
жарко
1002.7 1003.0
18 17.06 С 1 9000 м мгла ясно +32.5 +7.5 21 +31 +31 жарко 1003.7 1004.0 +38.5
06 18.06 З 1 9000 м мгла ясно +28.5 +10.0 32 +29 +43 жарко 1004.8 1005.0 +22.0
09 18.06 ЮЗ 2 10 км ясно +34.0 +12.3 27 +34 +55 опасность
солнечного
удара
1003.7 1004.0
12 18.06 З 1 10 км ясно +35.6 +11.1 23 +35 +51 опасность
солнечного
удара
1003.4 1003.0
15 18.06 З 1 10 км ясно +35.5 +10.4 22 +35 +36 очень
жарко
1002.3 1002.0
18 18.06 Ю 1 10 км ясно +31.3 +11.4 29 +31 +31 жарко 1002.7 1003.0 +35.9
12 19.06 ЮЗ 1 10 км 1/1 900 м
[Cu hum]
+35.5 +11.2 23 +35 +49 очень
жарко
1004.9 1005.0
15 19.06 З 2 10 км 1/1 900 м
[Cu hum]
+35.9 +13.2 26 +36 +38 очень
жарко
1004.7 1005.0
18 19.06 Ю 1 10 км ясно +31.5 +12.5 31 +32 +32 жарко 1005.7 1006.0 +36.5
06 20.06 В 1 10 км ясно +30.6 +13.2 35 +32 +46 жарко 1008.1 1008.0 +23.4

 

Местоположение метеостанции Zakho (Ирак): широта 37.13 долгота 42.72 высота над уровнем моря 433 м.

В архиве по умолчанию представлена погода в Zakho за последнюю неделю. Архивные данные за месяц целиком и за предыдущие месяцы, начиная с января 2011 года, Вы можете получить, выбрав интересующий диапазон дат из раскрывающегося списка и нажав кнопку "Ввод!".


*Определитесь, кто Вы:
робот инопланетянин человек

Внимание! Время в таблицах - всемирное. Для получения местного времени необходимо прибавить поправку, которая в Zakho равна 3 ч.

Смотрите также архив погоды в соседних городах и на ближайших метеорологических станциях:

Погода в Dohuk (Ирак) (38 км)
Погода в S?rnak (Турция) (50 км)
Погода в Rabiah (Ирак) (66 км)
Погода в Mosul (Ирак) (98 км)
Погода в Hakkari (Турция) (105 км)
Погода в Aqraa (Ирак) (111 км)
Погода в Siirt (Турция) (112 км)
Погода в Kamishli (Сирия) (133 км)
Погода в Van (Турция) (156 км)
Погода в Salahadin (Ирак) (156 км)

Пояснения к столбцам:

Ветер - указаны скорость ветра в м/с - средняя за 10 мин, порывы в срок и между сроками (в фигурных скобках) и направление, откуда дует ветер: С - северный, СВ - северо-восточный, В - восточный, ЮВ - юго-восточный, Ю - южный, ЮЗ - юго-западный, З - западный, СЗ - северо-западный.
Видимость - горизонтальная дальность видимости в метрах или километрах. При видимости от 1 до 10 км при отсутствии осадков обычно наблюдается дымка, при ухудшении видимости до 1 км и менее - туман. В сухую погоду видимость может ухудшаться дымом, пылью или мглою.
Явления - указаны атмосферные явления, наблюдавшиеся в срок или в последний час перед сроком; фигурными скобками обозначены явления, наблюдавшиеся между сроками (за 1-3 часа до срока); квадратными скобками обозначены град или гололедные отложения с указанием их диаметра в мм.
Облачность - указаны через наклонную черту общая и нижняя облачность в баллах и высота нижней границы облаков в метрах; квадратными скобками обозначены формы облаков: Ci - перистые, Cs - перисто-слоистые, Cc - перисто-кучевые, Ac - высококучевые, As - высокослоистые, Sc - слоисто-кучевые, Ns - слоисто-дождевые, Cu - кучевые, Cb - кучево-дождевые. Подробнее классификацию облаков см. в Атласе облаков (PDF).
T - Температура воздуха - температура, измеренная на высоте 2 м над землей.
Td - Температура точки росы - температура, при понижении до которой содержащийся в воздухе водяной пар достигнет насыщения.
f - Относительная влажность воздуха - влажноcть воздуха, измеренная на высоте 2 м над землей.
Te - Эффективная температура - температура, которую ощущает одетый по сезону человек в тени. Характеристика душности погоды. При расчете учитывается влияние влажности воздуха и скорости ветра на теплоощущения человека.
Tes - Эффективная температура на солнце - температура, которую ощущает человек, с поправкой на солнечный нагрев. Характеристика знойности погоды. Зависит от высоты солнца над горизонтом, облачности и скорости ветра. Ночью, в пасмурную погоду, а также при ветре 12 м/с и более поправка равна нулю.
P - Атмосферное давление - приведенное к уровню моря атмосферное давление.
Po - Атмосферное давление - измеренное на уровне метеостанции атмосферное давление.
Tmin - Минимальная температура - минимум температуры воздуха на высоте 2 м над землей.
Tmax - Максимальная температура - максимум температуры воздуха на высоте 2 м над землей.
R - Количество осадков - Количество выпавших осадков за период времени, мм. При наведении курсора мыши на число - период времени, за который выпало указанное количество осадков.
R24 - Количество осадков - Количество выпавших осадков за 24 часа, мм.
S - Снежный покров - Высота снежного покрова, см. При наведении курсора мыши на число - состояние снежного покрова и степень покрытия местности в баллах.